TimeEST,TemperatureF,Dew PointF,Humidity,Sea Level PressureIn,VisibilityMPH,Wind Direction,Wind SpeedMPH,Gust SpeedMPH,PrecipitationIn,Events,Conditions,WindDirDegrees,DateUTC
12:51 AM,25.0,7.0,46,30.24,10.0,West,16.1,23.0,N/A,,Scattered Clouds,270,2013-02-02 05:51:00
1:51 AM,24.1,6.1,46,30.25,10.0,West,15.0,23.0,N/A,,Partly Cloudy,270,2013-02-02 06:51:00
2:51 AM,23.0,6.8,50,30.27,10.0,West,15.0,21.9,N/A,,Mostly Cloudy,270,2013-02-02 07:51:00
3:51 AM,21.9,5.0,48,30.27,10.0,West,13.8,-,N/A,,Clear,270,2013-02-02 08:51:00
4:51 AM,21.0,5.0,50,30.27,10.0,West,16.1,24.2,N/A,,Clear,270,2013-02-02 09:51:00
5:51 AM,21.0,5.0,50,30.27,10.0,WNW,12.7,23.0,N/A,,Clear,290,2013-02-02 10:51:00
6:51 AM,19.9,3.9,50,30.29,10.0,West,8.1,-,N/A,,Partly Cloudy,260,2013-02-02 11:51:00
7:51 AM,21.0,3.9,48,30.31,10.0,West,10.4,-,N/A,,Scattered Clouds,260,2013-02-02 12:51:00
8:51 AM,21.9,5.0,48,30.30,10.0,West,8.1,-,N/A,,Scattered Clouds,260,2013-02-02 13:51:00
9:51 AM,24.1,6.1,46,30.29,10.0,WSW,3.5,-,N/A,,Scattered Clouds,250,2013-02-02 14:51:00
10:51 AM,25.0,6.1,45,30.26,10.0,SW,5.8,-,N/A,,Mostly Cloudy,230,2013-02-02 15:51:00
11:51 AM,28.0,6.1,39,30.22,10.0,SSW,8.1,-,N/A,,Mostly Cloudy,210,2013-02-02 16:51:00
12:51 PM,28.9,3.9,35,30.19,10.0,SW,15.0,21.9,N/A,,Mostly Cloudy,220,2013-02-02 17:51:00
1:51 PM,28.9,3.9,35,30.16,10.0,WSW,9.2,21.9,N/A,,Mostly Cloudy,240,2013-02-02 18:51:00
2:51 PM,28.9,1.0,30,30.14,10.0,SSW,13.8,20.7,N/A,,Mostly Cloudy,210,2013-02-02 19:51:00
3:51 PM,28.9,3.0,33,30.12,10.0,SW,11.5,20.7,N/A,,Mostly Cloudy,220,2013-02-02 20:51:00
4:51 PM,28.9,5.0,36,30.10,10.0,WSW,10.4,-,N/A,,Overcast,250,2013-02-02 21:51:00
5:51 PM,28.9,6.1,38,30.10,10.0,SW,9.2,-,N/A,,Overcast,230,2013-02-02 22:51:00
6:51 PM,28.9,6.1,38,30.10,10.0,WSW,8.1,-,N/A,,Overcast,240,2013-02-02 23:51:00
7:51 PM,28.0,10.9,49,30.10,10.0,SW,13.8,19.6,0.00,Snow,Light Snow,230,2013-02-03 00:51:00
8:51 PM,26.6,15.8,64,30.10,6.0,WSW,11.5,-,N/A,Snow,Light Snow,250,2013-02-03 01:51:00
9:21 PM,26.6,19.4,74,30.10,5.0,West,6.9,-,0.00,Snow,Light Snow,280,2013-02-03 02:21:00
9:34 PM,24.8,19.4,80,30.10,2.0,West,4.6,-,0.00,Snow,Light Snow,270,2013-02-03 02:34:00
9:49 PM,24.8,19.4,80,30.10,2.5,West,4.6,-,0.00,Snow,Light Snow,270,2013-02-03 02:49:00
9:51 PM,25.0,19.0,78,30.10,2.5,West,4.6,-,0.00,Snow,Light Snow,270,2013-02-03 02:51:00
10:51 PM,25.0,19.9,81,30.09,2.5,South,5.8,-,0.00,Snow,Light Snow,180,2013-02-03 03:51:00
11:51 PM,25.0,19.9,81,30.07,3.0,South,4.6,-,0.01,Snow,Light Snow,190,2013-02-03 04:51:00